CZ-7A R/B, 64063

Orbit data source: Space-Track

CZ-7A R/B, 64063 is space debris in HEO originally from a launch on Tue, 20 May 2025 UTC launched from the Wenchang Satellite Launch Center (WSC). Debris objects in space refer to the collection of defunct objects orbiting the Earth. Examples of debris include non-operational satellites, rocket bodies, and fragments generated from explosions, collisions, or faulty payload assembly.

Loading next visibility...
Identifier
64063, 2025-106B
Orbit
HEO
Last TLE update
2 days ago
Origin
Flag of CNCASC (CN / PRC)
Manufacturer
CALT
Mission
Spacecraft
Bus & Motor
CZ-3A STAGE 3, Unknown motor
Mass
~2,800 kg wet, ~2,800 kg dry
Launch date (UTC)
2025-05-20 (1 month ago)
Launch vehicle
Unknown
Launch site
Wenchang Satellite Launch Center (WSC)
Object type
Payload
Rocket body
Debris
Shape & HBR
Unknown
Radar Cross Section
Large (>1 m²)

Expand to show TLE details & history

TLE from 2 days ago
0 CZ-7A R/B
1 64063U 25106B   25168.07772900  .00223628 -40160-6  22460-2 0  9994
2 64063  15.5976  64.2839 7108049 202.1471  97.4277  2.55922355   691
Epoch: 2025-06-17T01:51Z
TLE epoch observation values (Epoch: 2025-06-17T01:51:55.785Z)
Latitude
0.00008°
Longitude
130.73912°
Altitude
26,320.353 km
Speed
2.593 km/s
True Right ascension
04h 17m 12s
True Declination
0° 00' 00"
Sunlit
Object was in daylight at epoch
Visualization orbit readout
Latitude
10.21489°
Longitude
-90.20622°
Altitude
2,197.719 km
Speed
8.675 km/s
Apparent Right ascension
11h 15m 21s
Apparent Declination
-17° 41' 48"
Sunlit
Object is in daylight
Visualization observer readout
Local Sidereal Time
18:05:21
Azimuth
263.813° W
Elevation
-20.684°
Doppler factor
1
Orbital elements
Apogee altitude
32,254.995 km
Perigee altitude
152.422 km
Semi-major axis
22,581.846 km
Eccentricity
0.7108
Inclination
15.5976°
RAAN
64.2839°
Arg. of periapsis
202.1471°
True anomaly
Unknown
Mean anomaly
97.4277°
Eccentric anomaly
Unknown
Mean motion
0.63959 °/min
Orbital period
562.86 mins
BSTAR
0.002246
Loading maneuver chart data...
Loading SW <> Apogee altitude chart data...
Loading historical data...
Loading historical data...
Loading historical data...
Loading historical data...
Loading historical data...
Loading historical data...
Loading historical data...
Other satellites on launch #106 in the year 2025 (2025-05-20 UTC)

CZ-7A R/B Visibility forecast

Observer location: undefined°, undefined°

Span
Click to sort rows by Start time (UTC) header in descending order
Start Az.
Max El. time (UTC)
Max El. Az.
Max El.
End time (UTC)
End Az.
490 mins2025-06-19 17:44:45.143Z224.473° SW2025-06-20 01:38:45.143Z219.812° SW30.305°2025-06-20 01:54:45.143Z158.881° S
|